{"data":{"norad_id":57832,"epoch":"2026-05-25T04:48:20.286720Z","epoch_age_seconds":58036,"freshness":"FRESH","line1":"1 57832U 23139C   26145.20023480  .00000150  00000+0  70891-4 0  9994","line2":"2 57832  85.9898 270.2470 0001767 101.3342 258.8040 14.12442833139463","mean_motion":14.12442833,"eccentricity":0.0001767,"inclination_deg":85.9898,"raan_deg":270.247,"arg_perigee_deg":101.3342,"mean_anomaly_deg":258.804,"bstar":7.0891e-5,"rev_number":13946,"period_min":101.95102883856,"perigee_km":849.74702026603,"apogee_km":852.30180590941,"semimajor_km":7229.1614130877,"source":"CELESTRAK","updated_at":"2026-05-25T13:38:00.302211Z"}}